#datetime,building,power
2022-11-02T00:01:00,pth,2.40
2022-11-02T00:02:00,pth,1.20
2022-11-02T00:04:00,pth,2.40
2022-11-02T00:06:00,pth,2.40
2022-11-02T00:08:00,pth,2.40
2022-11-02T00:10:00,pth,3.60
2022-11-02T00:12:00,pth,2.40
2022-11-02T00:14:00,pth,2.40
2022-11-02T00:15:00,pth,2.40
2022-11-02T00:17:00,pth,2.40
2022-11-02T00:19:00,pth,2.40
2022-11-02T00:21:00,pth,2.40
2022-11-02T00:22:00,pth,1.20
2022-11-02T00:24:00,pth,2.40
2022-11-02T00:26:00,pth,2.40
2022-11-02T00:28:00,pth,2.40
2022-11-02T00:30:00,pth,2.40
2022-11-02T00:31:00,pth,1.20
2022-11-02T00:32:00,pth,2.40
2022-11-02T00:33:00,pth,1.20
2022-11-02T00:35:00,pth,2.40
2022-11-02T00:37:00,pth,2.40
2022-11-02T00:39:00,pth,1.20
2022-11-02T00:40:00,pth,1.20
2022-11-02T00:42:00,pth,2.40
2022-11-02T00:44:00,pth,2.40
2022-11-02T00:46:00,pth,2.40
2022-11-02T00:48:00,pth,1.20
2022-11-02T00:50:00,pth,2.40
2022-11-02T00:51:00,pth,1.20
2022-11-02T00:52:00,pth,2.40
2022-11-02T00:54:00,pth,2.40
2022-11-02T00:55:00,pth,1.20
2022-11-02T00:57:00,pth,2.40
2022-11-02T00:59:00,pth,2.40
2022-11-02T01:00:00,pth,1.20
2022-11-02T01:02:00,pth,2.40
2022-11-02T01:04:00,pth,2.40
2022-11-02T01:05:00,pth,2.40
2022-11-02T01:07:00,pth,2.40
2022-11-02T01:09:00,pth,2.40
2022-11-02T01:10:00,pth,1.20
2022-11-02T01:12:00,pth,2.40
2022-11-02T01:14:00,pth,3.60
2022-11-02T01:16:00,pth,2.40
2022-11-02T01:17:00,pth,1.20
2022-11-02T01:19:00,pth,3.60
2022-11-02T01:20:00,pth,1.20
2022-11-02T01:21:00,pth,1.20
2022-11-02T01:23:00,pth,2.40
2022-11-02T01:24:00,pth,1.20
2022-11-02T01:26:00,pth,2.40
2022-11-02T01:28:00,pth,2.40
2022-11-02T01:30:00,pth,2.40
2022-11-02T01:31:00,pth,1.20
2022-11-02T01:32:00,pth,1.20
2022-11-02T01:34:00,pth,2.40
2022-11-02T01:36:00,pth,2.40
2022-11-02T01:38:00,pth,2.40
2022-11-02T01:40:00,pth,2.40
2022-11-02T01:41:00,pth,1.20
2022-11-02T01:43:00,pth,2.40
2022-11-02T01:45:00,pth,2.40
2022-11-02T01:47:00,pth,2.40
2022-11-02T01:50:00,pth,2.40
2022-11-02T01:52:00,pth,2.40
2022-11-02T01:54:00,pth,3.60
2022-11-02T01:56:00,pth,2.40
2022-11-02T01:58:00,pth,2.40
2022-11-02T02:00:00,pth,2.40
2022-11-02T02:01:00,pth,1.20
2022-11-02T02:03:00,pth,1.20
2022-11-02T02:04:00,pth,1.20
2022-11-02T02:06:00,pth,2.40
2022-11-02T02:07:00,pth,2.40
2022-11-02T02:09:00,pth,2.40
2022-11-02T02:11:00,pth,2.40
2022-11-02T02:13:00,pth,2.40
2022-11-02T02:14:00,pth,1.20
2022-11-02T02:15:00,pth,1.20
2022-11-02T02:17:00,pth,2.40
2022-11-02T02:19:00,pth,2.40
2022-11-02T02:21:00,pth,1.20
2022-11-02T02:22:00,pth,1.20
2022-11-02T02:24:00,pth,2.40
2022-11-02T02:25:00,pth,1.20
2022-11-02T02:27:00,pth,2.40
2022-11-02T02:29:00,pth,2.40
2022-11-02T02:31:00,pth,1.20
2022-11-02T02:32:00,pth,1.20
2022-11-02T02:33:00,pth,1.20
2022-11-02T02:35:00,pth,2.40
2022-11-02T02:37:00,pth,1.20
2022-11-02T02:38:00,pth,1.20
2022-11-02T02:40:00,pth,2.40
2022-11-02T02:41:00,pth,1.20
2022-11-02T02:43:00,pth,2.40
2022-11-02T02:46:00,pth,2.40
2022-11-02T02:47:00,pth,1.20
2022-11-02T02:49:00,pth,2.40
2022-11-02T02:51:00,pth,1.20
2022-11-02T02:53:00,pth,2.40
2022-11-02T02:55:00,pth,2.40
2022-11-02T02:57:00,pth,2.40
2022-11-02T02:59:00,pth,1.20
2022-11-02T03:00:00,pth,1.20
2022-11-02T03:02:00,pth,2.40
2022-11-02T03:03:00,pth,1.20
2022-11-02T03:05:00,pth,1.20
2022-11-02T03:07:00,pth,2.40
2022-11-02T03:08:00,pth,1.20
2022-11-02T03:10:00,pth,1.20
2022-11-02T03:12:00,pth,2.40
2022-11-02T03:13:00,pth,1.20
2022-11-02T03:15:00,pth,1.20
2022-11-02T03:17:00,pth,2.40
2022-11-02T03:19:00,pth,2.40
2022-11-02T03:20:00,pth,1.20
2022-11-02T03:22:00,pth,2.40
2022-11-02T03:23:00,pth,1.20
2022-11-02T03:25:00,pth,1.20
2022-11-02T03:27:00,pth,2.40
2022-11-02T03:28:00,pth,1.20
2022-11-02T03:30:00,pth,2.40
2022-11-02T03:32:00,pth,1.20
2022-11-02T03:34:00,pth,2.40
2022-11-02T03:37:00,pth,2.40
2022-11-02T03:38:00,pth,2.40
2022-11-02T03:39:00,pth,1.20
2022-11-02T03:41:00,pth,1.20
2022-11-02T03:42:00,pth,1.20
2022-11-02T03:44:00,pth,2.40
2022-11-02T03:46:00,pth,2.40
2022-11-02T03:47:00,pth,1.20
2022-11-02T03:49:00,pth,2.40
2022-11-02T03:51:00,pth,2.40
2022-11-02T03:53:00,pth,1.20
2022-11-02T03:54:00,pth,1.20
2022-11-02T03:56:00,pth,2.40
2022-11-02T03:58:00,pth,2.40
2022-11-02T04:00:00,pth,2.40
2022-11-02T04:02:00,pth,2.40
2022-11-02T04:04:00,pth,2.40
2022-11-02T04:06:00,pth,2.40
2022-11-02T04:07:00,pth,1.20
2022-11-02T04:09:00,pth,2.40
2022-11-02T04:10:00,pth,1.20
2022-11-02T04:12:00,pth,2.40
2022-11-02T04:14:00,pth,2.40
2022-11-02T04:16:00,pth,1.20
2022-11-02T04:17:00,pth,1.20
2022-11-02T04:19:00,pth,2.40
2022-11-02T04:21:00,pth,2.40
2022-11-02T04:23:00,pth,2.40
2022-11-02T04:25:00,pth,2.40
2022-11-02T04:27:00,pth,2.40
2022-11-02T04:29:00,pth,2.40
2022-11-02T04:31:00,pth,2.40
2022-11-02T04:33:00,pth,1.20
2022-11-02T04:35:00,pth,2.40
2022-11-02T04:37:00,pth,2.40
2022-11-02T04:39:00,pth,2.40
2022-11-02T04:41:00,pth,1.20
2022-11-02T04:42:00,pth,1.20
2022-11-02T04:44:00,pth,2.40
2022-11-02T04:45:00,pth,1.20
2022-11-02T04:46:00,pth,1.20
2022-11-02T04:48:00,pth,2.40
2022-11-02T04:50:00,pth,2.40
2022-11-02T04:52:00,pth,1.20
2022-11-02T04:54:00,pth,2.40
2022-11-02T04:56:00,pth,2.40
2022-11-02T04:57:00,pth,1.20
2022-11-02T04:59:00,pth,1.20
2022-11-02T05:01:00,pth,2.40
2022-11-02T05:03:00,pth,2.40
2022-11-02T05:05:00,pth,1.20
2022-11-02T05:07:00,pth,2.40
2022-11-02T05:09:00,pth,2.40
2022-11-02T05:11:00,pth,2.40
2022-11-02T05:12:00,pth,1.20
2022-11-02T05:13:00,pth,1.20
2022-11-02T05:15:00,pth,1.20
2022-11-02T05:17:00,pth,2.40
2022-11-02T05:18:00,pth,2.40
2022-11-02T05:19:00,pth,1.20
2022-11-02T05:20:00,pth,1.20
2022-11-02T05:22:00,pth,2.40
2022-11-02T05:24:00,pth,1.20
2022-11-02T05:26:00,pth,2.40
2022-11-02T05:27:00,pth,1.20
2022-11-02T05:29:00,pth,1.20
2022-11-02T05:31:00,pth,2.40
2022-11-02T05:32:00,pth,1.20
2022-11-02T05:34:00,pth,1.20
2022-11-02T05:35:00,pth,1.20
2022-11-02T05:37:00,pth,2.40
2022-11-02T05:40:00,pth,2.40
2022-11-02T05:42:00,pth,2.40
2022-11-02T05:44:00,pth,1.20
2022-11-02T05:46:00,pth,2.40
2022-11-02T05:49:00,pth,2.40
2022-11-02T05:50:00,pth,1.20
2022-11-02T05:52:00,pth,1.20
2022-11-02T05:54:00,pth,2.40
2022-11-02T05:56:00,pth,2.40
2022-11-02T05:57:00,pth,1.20
2022-11-02T05:59:00,pth,1.20
2022-11-02T06:01:00,pth,2.40
2022-11-02T06:03:00,pth,2.40
2022-11-02T06:05:00,pth,1.20
2022-11-02T06:07:00,pth,2.40
2022-11-02T06:08:00,pth,1.20
2022-11-02T06:10:00,pth,2.40
2022-11-02T06:12:00,pth,1.20
2022-11-02T06:14:00,pth,2.40
2022-11-02T06:16:00,pth,2.40
2022-11-02T06:18:00,pth,2.40
2022-11-02T06:19:00,pth,1.20
2022-11-02T06:21:00,pth,1.20
2022-11-02T06:22:00,pth,1.20
2022-11-02T06:24:00,pth,2.40
2022-11-02T06:27:00,pth,2.40
2022-11-02T06:28:00,pth,1.20
2022-11-02T06:30:00,pth,2.40
2022-11-02T06:31:00,pth,1.20
2022-11-02T06:33:00,pth,2.40
2022-11-02T06:35:00,pth,1.20
2022-11-02T06:37:00,pth,2.40
2022-11-02T06:38:00,pth,1.20
2022-11-02T06:40:00,pth,1.20
2022-11-02T06:42:00,pth,2.40
2022-11-02T06:43:00,pth,1.20
2022-11-02T06:45:00,pth,2.40
2022-11-02T06:47:00,pth,1.20
2022-11-02T06:49:00,pth,2.40
2022-11-02T06:51:00,pth,2.40
2022-11-02T06:52:00,pth,1.20
2022-11-02T06:54:00,pth,2.40
2022-11-02T06:56:00,pth,1.20
2022-11-02T06:58:00,pth,2.40
2022-11-02T07:00:00,pth,2.40
2022-11-02T07:01:00,pth,1.20
2022-11-02T07:03:00,pth,2.40
2022-11-02T07:05:00,pth,2.40
2022-11-02T07:06:00,pth,1.20
2022-11-02T07:07:00,pth,1.20
2022-11-02T07:09:00,pth,2.40
2022-11-02T07:11:00,pth,1.20
2022-11-02T07:13:00,pth,2.40
2022-11-02T07:15:00,pth,2.40
2022-11-02T07:17:00,pth,2.40
2022-11-02T07:19:00,pth,1.20
2022-11-02T07:20:00,pth,1.20
2022-11-02T07:22:00,pth,2.40
2022-11-02T07:23:00,pth,2.40
2022-11-02T07:25:00,pth,2.40
2022-11-02T07:27:00,pth,2.40
2022-11-02T07:29:00,pth,2.40
2022-11-02T07:31:00,pth,2.40
2022-11-02T07:32:00,pth,1.20
2022-11-02T07:34:00,pth,3.60
2022-11-02T07:36:00,pth,2.40
2022-11-02T07:38:00,pth,2.40
2022-11-02T07:40:00,pth,2.40
2022-11-02T07:42:00,pth,2.40
2022-11-02T07:44:00,pth,2.40
2022-11-02T07:46:00,pth,2.40
2022-11-02T07:47:00,pth,1.20
2022-11-02T07:49:00,pth,2.40
2022-11-02T07:51:00,pth,2.40
2022-11-02T07:53:00,pth,2.40
2022-11-02T07:55:00,pth,2.40
2022-11-02T07:57:00,pth,2.40
2022-11-02T07:58:00,pth,1.20
2022-11-02T08:00:00,pth,1.20
2022-11-02T08:01:00,pth,1.20
2022-11-02T08:03:00,pth,1.20
2022-11-02T08:05:00,pth,1.20
2022-11-02T08:06:00,pth,1.20
2022-11-02T08:08:00,pth,1.20
2022-11-02T08:10:00,pth,2.40
2022-11-02T08:12:00,pth,1.20
2022-11-02T08:13:00,pth,1.20
2022-11-02T08:15:00,pth,1.20
2022-11-02T08:17:00,pth,1.20
2022-11-02T08:19:00,pth,2.40
2022-11-02T08:21:00,pth,1.20
2022-11-02T08:23:00,pth,1.20
2022-11-02T08:26:00,pth,2.40
2022-11-02T08:28:00,pth,1.20
2022-11-02T08:31:00,pth,1.20
2022-11-02T08:33:00,pth,1.20
2022-11-02T08:34:00,pth,1.20
2022-11-02T08:36:00,pth,1.20
2022-11-02T08:38:00,pth,1.20
2022-11-02T08:39:00,pth,1.20
2022-11-02T08:40:00,pth,1.20
2022-11-02T08:42:00,pth,1.20
2022-11-02T08:44:00,pth,2.40
2022-11-02T08:47:00,pth,2.40
2022-11-02T08:49:00,pth,1.20
2022-11-02T08:50:00,pth,1.20
2022-11-02T08:52:00,pth,1.20
2022-11-02T08:53:00,pth,1.20
2022-11-02T08:55:00,pth,1.20
2022-11-02T08:57:00,pth,2.40
2022-11-02T09:00:00,pth,2.40
2022-11-02T09:02:00,pth,1.20
2022-11-02T09:04:00,pth,1.20
2022-11-02T09:06:00,pth,1.20
2022-11-02T09:07:00,pth,1.20
2022-11-02T09:09:00,pth,1.20
2022-11-02T09:10:00,pth,1.20
2022-11-02T09:12:00,pth,1.20
2022-11-02T09:14:00,pth,2.40
2022-11-02T09:16:00,pth,1.20
2022-11-02T09:18:00,pth,1.20
2022-11-02T09:20:00,pth,2.40
2022-11-02T09:22:00,pth,1.20
2022-11-02T09:24:00,pth,2.40
2022-11-02T09:26:00,pth,1.20
2022-11-02T09:28:00,pth,1.20
2022-11-02T09:30:00,pth,2.40
2022-11-02T09:32:00,pth,1.20
2022-11-02T09:34:00,pth,1.20
2022-11-02T09:36:00,pth,2.40
2022-11-02T09:38:00,pth,1.20
2022-11-02T09:41:00,pth,1.20
2022-11-02T09:43:00,pth,1.20
2022-11-02T09:45:00,pth,2.40
2022-11-02T09:47:00,pth,1.20
2022-11-02T09:50:00,pth,2.40
2022-11-02T09:52:00,pth,2.40
2022-11-02T09:54:00,pth,1.20
2022-11-02T09:56:00,pth,2.40
2022-11-02T09:58:00,pth,1.20
2022-11-02T10:00:00,pth,2.40
2022-11-02T10:01:00,pth,1.20
2022-11-02T10:03:00,pth,1.20
2022-11-02T10:05:00,pth,1.20
2022-11-02T10:06:00,pth,1.20
2022-11-02T10:08:00,pth,1.20
2022-11-02T10:10:00,pth,1.20
2022-11-02T10:12:00,pth,1.20
2022-11-02T10:14:00,pth,1.20
2022-11-02T10:16:00,pth,1.20
2022-11-02T10:19:00,pth,1.20
2022-11-02T10:21:00,pth,1.20
2022-11-02T10:22:00,pth,1.20
2022-11-02T10:24:00,pth,1.20
2022-11-02T10:26:00,pth,1.20
2022-11-02T10:28:00,pth,1.20
2022-11-02T10:30:00,pth,1.20
2022-11-02T10:32:00,pth,1.20
2022-11-02T10:34:00,pth,1.20
2022-11-02T10:36:00,pth,1.20
2022-11-02T10:38:00,pth,1.20
2022-11-02T10:40:00,pth,1.20
2022-11-02T10:42:00,pth,1.20
2022-11-02T10:45:00,pth,1.20
2022-11-02T10:47:00,pth,1.20
2022-11-02T10:49:00,pth,1.20
2022-11-02T10:51:00,pth,1.20
2022-11-02T10:53:00,pth,1.20
2022-11-02T10:55:00,pth,1.20
2022-11-02T10:57:00,pth,1.20
2022-11-02T10:59:00,pth,2.40
2022-11-02T11:01:00,pth,1.20
2022-11-02T11:03:00,pth,1.20
2022-11-02T11:05:00,pth,1.20
2022-11-02T11:07:00,pth,2.40
2022-11-02T11:09:00,pth,1.20
2022-11-02T11:11:00,pth,1.20
2022-11-02T11:12:00,pth,1.20
2022-11-02T11:14:00,pth,1.20
2022-11-02T11:16:00,pth,2.40
2022-11-02T11:19:00,pth,1.20
2022-11-02T11:20:00,pth,1.20
2022-11-02T11:23:00,pth,2.40
2022-11-02T11:25:00,pth,2.40
2022-11-02T11:26:00,pth,1.20
2022-11-02T11:28:00,pth,1.20
2022-11-02T11:30:00,pth,1.20
2022-11-02T11:32:00,pth,1.20
2022-11-02T11:34:00,pth,1.20
2022-11-02T11:36:00,pth,2.40
2022-11-02T11:39:00,pth,2.40
2022-11-02T11:41:00,pth,1.20
2022-11-02T11:43:00,pth,1.20
2022-11-02T11:46:00,pth,1.20
2022-11-02T11:48:00,pth,1.20
2022-11-02T11:49:00,pth,1.20
2022-11-02T11:51:00,pth,1.20
2022-11-02T11:53:00,pth,1.20
2022-11-02T11:55:00,pth,1.20
2022-11-02T11:57:00,pth,1.20
2022-11-02T11:59:00,pth,2.40
2022-11-02T12:02:00,pth,2.40
2022-11-02T12:04:00,pth,2.40
2022-11-02T12:06:00,pth,1.20
2022-11-02T12:08:00,pth,2.40
2022-11-02T12:10:00,pth,1.20
2022-11-02T12:11:00,pth,1.20
2022-11-02T12:13:00,pth,2.40
2022-11-02T12:15:00,pth,1.20
2022-11-02T12:17:00,pth,2.40
2022-11-02T12:20:00,pth,3.60
2022-11-02T12:23:00,pth,2.40
2022-11-02T12:25:00,pth,1.20
2022-11-02T12:27:00,pth,1.20
2022-11-02T12:29:00,pth,1.20
2022-11-02T12:31:00,pth,2.40
2022-11-02T12:33:00,pth,1.20
2022-11-02T12:35:00,pth,1.20
2022-11-02T12:36:00,pth,1.20
2022-11-02T12:38:00,pth,1.20
2022-11-02T12:40:00,pth,1.20
2022-11-02T12:41:00,pth,1.20
2022-11-02T12:43:00,pth,1.20
2022-11-02T12:45:00,pth,1.20
2022-11-02T12:47:00,pth,1.20
2022-11-02T12:49:00,pth,1.20
2022-11-02T12:51:00,pth,2.40
2022-11-02T12:53:00,pth,1.20
2022-11-02T12:55:00,pth,2.40
2022-11-02T12:58:00,pth,2.40
2022-11-02T13:00:00,pth,1.20
2022-11-02T13:03:00,pth,1.20
2022-11-02T13:05:00,pth,1.20
2022-11-02T13:07:00,pth,1.20
2022-11-02T13:08:00,pth,1.20
2022-11-02T13:10:00,pth,1.20
2022-11-02T13:13:00,pth,1.20
2022-11-02T13:15:00,pth,1.20
2022-11-02T13:16:00,pth,1.20
2022-11-02T13:18:00,pth,1.20
2022-11-02T13:20:00,pth,1.20
2022-11-02T13:23:00,pth,2.40
2022-11-02T13:25:00,pth,1.20
2022-11-02T13:27:00,pth,1.20
2022-11-02T13:30:00,pth,1.20
2022-11-02T13:32:00,pth,1.20
2022-11-02T13:34:00,pth,1.20
2022-11-02T13:36:00,pth,1.20
2022-11-02T13:38:00,pth,1.20
2022-11-02T13:41:00,pth,1.20
2022-11-02T13:43:00,pth,1.20
2022-11-02T13:45:00,pth,1.20
2022-11-02T13:47:00,pth,1.20
2022-11-02T13:49:00,pth,2.40
2022-11-02T13:51:00,pth,1.20
2022-11-02T13:53:00,pth,1.20
2022-11-02T13:54:00,pth,1.20
2022-11-02T13:56:00,pth,3.60
2022-11-02T13:58:00,pth,1.20
2022-11-02T13:59:00,pth,1.20
2022-11-02T14:01:00,pth,2.40
2022-11-02T14:03:00,pth,1.20
2022-11-02T14:05:00,pth,1.20
2022-11-02T14:06:00,pth,1.20
2022-11-02T14:08:00,pth,1.20
2022-11-02T14:10:00,pth,1.20
2022-11-02T14:12:00,pth,1.20
2022-11-02T14:13:00,pth,1.20
2022-11-02T14:15:00,pth,1.20
2022-11-02T14:18:00,pth,1.20
2022-11-02T14:20:00,pth,1.20
2022-11-02T14:21:00,pth,1.20
2022-11-02T14:24:00,pth,2.40
2022-11-02T14:25:00,pth,1.20
2022-11-02T14:27:00,pth,1.20
2022-11-02T14:28:00,pth,1.20
2022-11-02T14:31:00,pth,2.40
2022-11-02T14:33:00,pth,1.20
2022-11-02T14:35:00,pth,1.20
2022-11-02T14:37:00,pth,1.20
2022-11-02T14:39:00,pth,2.40
2022-11-02T14:41:00,pth,1.20
2022-11-02T14:42:00,pth,1.20
2022-11-02T14:44:00,pth,2.40
2022-11-02T14:46:00,pth,1.20
2022-11-02T14:48:00,pth,2.40
2022-11-02T14:50:00,pth,1.20
2022-11-02T14:51:00,pth,1.20
2022-11-02T14:53:00,pth,1.20
2022-11-02T14:54:00,pth,1.20
2022-11-02T14:56:00,pth,1.20
2022-11-02T14:57:00,pth,1.20
2022-11-02T14:59:00,pth,1.20
2022-11-02T15:01:00,pth,1.20
2022-11-02T15:02:00,pth,1.20
2022-11-02T15:04:00,pth,1.20
2022-11-02T15:06:00,pth,1.20
2022-11-02T15:08:00,pth,1.20
2022-11-02T15:11:00,pth,1.20
2022-11-02T15:13:00,pth,1.20
2022-11-02T15:15:00,pth,1.20
2022-11-02T15:17:00,pth,1.20
2022-11-02T15:19:00,pth,1.20
2022-11-02T15:21:00,pth,1.20
2022-11-02T15:24:00,pth,1.20
2022-11-02T15:26:00,pth,1.20
2022-11-02T15:28:00,pth,1.20
2022-11-02T15:31:00,pth,2.40
2022-11-02T15:34:00,pth,1.20
2022-11-02T15:36:00,pth,1.20
2022-11-02T15:38:00,pth,2.40
2022-11-02T15:40:00,pth,1.20
2022-11-02T15:42:00,pth,2.40
2022-11-02T15:44:00,pth,1.20
2022-11-02T15:46:00,pth,1.20
2022-11-02T15:48:00,pth,1.20
2022-11-02T15:50:00,pth,1.20
2022-11-02T15:52:00,pth,1.20
2022-11-02T15:54:00,pth,1.20
2022-11-02T15:55:00,pth,1.20
2022-11-02T15:57:00,pth,1.20
2022-11-02T15:59:00,pth,1.20
2022-11-02T16:01:00,pth,2.40
2022-11-02T16:02:00,pth,1.20
2022-11-02T16:04:00,pth,1.20
2022-11-02T16:06:00,pth,2.40
2022-11-02T16:08:00,pth,1.20
2022-11-02T16:10:00,pth,1.20
2022-11-02T16:12:00,pth,2.40
2022-11-02T16:15:00,pth,2.40
2022-11-02T16:17:00,pth,1.20
2022-11-02T16:19:00,pth,2.40
2022-11-02T16:21:00,pth,2.40
2022-11-02T16:22:00,pth,1.20
2022-11-02T16:24:00,pth,2.40
2022-11-02T16:26:00,pth,2.40
2022-11-02T16:29:00,pth,2.40
2022-11-02T16:31:00,pth,2.40
2022-11-02T16:32:00,pth,1.20
2022-11-02T16:34:00,pth,2.40
2022-11-02T16:36:00,pth,2.40
2022-11-02T16:38:00,pth,1.20
2022-11-02T16:40:00,pth,2.40
2022-11-02T16:43:00,pth,3.60
2022-11-02T16:45:00,pth,1.20
2022-11-02T16:47:00,pth,2.40
2022-11-02T16:49:00,pth,1.20
2022-11-02T16:51:00,pth,2.40
2022-11-02T16:53:00,pth,1.20
2022-11-02T16:55:00,pth,2.40
2022-11-02T16:57:00,pth,1.20
2022-11-02T16:59:00,pth,2.40
2022-11-02T17:01:00,pth,2.40
2022-11-02T17:02:00,pth,1.20
2022-11-02T17:03:00,pth,1.20
2022-11-02T17:05:00,pth,2.40
2022-11-02T17:06:00,pth,1.20
2022-11-02T17:07:00,pth,1.20
2022-11-02T17:10:00,pth,1.20
2022-11-02T17:12:00,pth,2.40
2022-11-02T17:14:00,pth,2.40
2022-11-02T17:16:00,pth,2.40
2022-11-02T17:18:00,pth,2.40
2022-11-02T17:19:00,pth,1.20
2022-11-02T17:21:00,pth,6.00
2022-11-02T17:23:00,pth,13.20
2022-11-02T17:24:00,pth,6.00
2022-11-02T17:26:00,pth,13.20
2022-11-02T17:27:00,pth,7.20
2022-11-02T17:29:00,pth,13.20
2022-11-02T17:30:00,pth,7.20
2022-11-02T17:32:00,pth,13.20
2022-11-02T17:34:00,pth,13.20
2022-11-02T17:36:00,pth,13.20
2022-11-02T17:38:00,pth,13.20
2022-11-02T17:40:00,pth,12.00
2022-11-02T17:41:00,pth,6.00
2022-11-02T17:43:00,pth,12.00
2022-11-02T17:44:00,pth,2.40
2022-11-02T17:46:00,pth,14.40
2022-11-02T17:48:00,pth,8.40
2022-11-02T17:50:00,pth,12.00
2022-11-02T17:52:00,pth,8.40
2022-11-02T17:54:00,pth,3.60
2022-11-02T17:56:00,pth,10.80
2022-11-02T17:58:00,pth,13.20
2022-11-02T18:00:00,pth,13.20
2022-11-02T18:01:00,pth,7.20
2022-11-02T18:03:00,pth,13.20
2022-11-02T18:04:00,pth,6.00
2022-11-02T18:06:00,pth,13.20
2022-11-02T18:08:00,pth,13.20
2022-11-02T18:10:00,pth,15.60
2022-11-02T18:11:00,pth,7.20
2022-11-02T18:13:00,pth,14.40
2022-11-02T18:15:00,pth,13.20
2022-11-02T18:17:00,pth,14.40
2022-11-02T18:19:00,pth,15.60
2022-11-02T18:20:00,pth,7.20
2022-11-02T18:22:00,pth,14.40
2022-11-02T18:24:00,pth,14.40
2022-11-02T18:26:00,pth,14.40
2022-11-02T18:28:00,pth,14.40
2022-11-02T18:29:00,pth,7.20
2022-11-02T18:31:00,pth,13.20
2022-11-02T18:33:00,pth,4.80
2022-11-02T18:34:00,pth,6.00
2022-11-02T18:36:00,pth,14.40
2022-11-02T18:38:00,pth,14.40
2022-11-02T18:40:00,pth,6.00
2022-11-02T18:41:00,pth,3.60
2022-11-02T18:43:00,pth,15.60
2022-11-02T18:45:00,pth,10.80
2022-11-02T18:47:00,pth,4.80
2022-11-02T18:48:00,pth,7.20
2022-11-02T18:50:00,pth,13.20
2022-11-02T18:51:00,pth,7.20
2022-11-02T18:52:00,pth,6.00
2022-11-02T18:54:00,pth,14.40
2022-11-02T18:55:00,pth,6.00
2022-11-02T18:57:00,pth,13.20
2022-11-02T18:59:00,pth,13.20
2022-11-02T19:01:00,pth,13.20
2022-11-02T19:03:00,pth,13.20
2022-11-02T19:05:00,pth,13.20
2022-11-02T19:07:00,pth,8.40
2022-11-02T19:09:00,pth,10.80
2022-11-02T19:11:00,pth,10.80
2022-11-02T19:13:00,pth,6.00
2022-11-02T19:15:00,pth,10.80
2022-11-02T19:17:00,pth,9.60
2022-11-02T19:19:00,pth,6.00
2022-11-02T19:21:00,pth,9.60
2022-11-02T19:23:00,pth,9.60
2022-11-02T19:25:00,pth,6.00
2022-11-02T19:27:00,pth,7.20
2022-11-02T19:29:00,pth,10.80
2022-11-02T19:31:00,pth,7.20
2022-11-02T19:32:00,pth,4.80
2022-11-02T19:34:00,pth,7.20
2022-11-02T19:36:00,pth,6.00
2022-11-02T19:38:00,pth,9.60
2022-11-02T19:39:00,pth,2.40
2022-11-02T19:41:00,pth,8.40
2022-11-02T19:42:00,pth,3.60
2022-11-02T19:43:00,pth,6.00
2022-11-02T19:45:00,pth,3.60
2022-11-02T19:47:00,pth,2.40
2022-11-02T19:48:00,pth,1.20
2022-11-02T19:50:00,pth,2.40
2022-11-02T19:52:00,pth,1.20
2022-11-02T19:54:00,pth,2.40
2022-11-02T19:56:00,pth,4.80
2022-11-02T19:58:00,pth,4.80
2022-11-02T19:59:00,pth,2.40
2022-11-02T20:00:00,pth,2.40
2022-11-02T20:02:00,pth,4.80
2022-11-02T20:04:00,pth,3.60
2022-11-02T20:05:00,pth,1.20
2022-11-02T20:07:00,pth,2.40
2022-11-02T20:08:00,pth,1.20
2022-11-02T20:10:00,pth,1.20
2022-11-02T20:12:00,pth,2.40
2022-11-02T20:13:00,pth,1.20
2022-11-02T20:14:00,pth,1.20
2022-11-02T20:16:00,pth,3.60
2022-11-02T20:19:00,pth,2.40
2022-11-02T20:20:00,pth,1.20
2022-11-02T20:22:00,pth,2.40
2022-11-02T20:24:00,pth,3.60
2022-11-02T20:26:00,pth,2.40
2022-11-02T20:28:00,pth,2.40
2022-11-02T20:29:00,pth,1.20
2022-11-02T20:31:00,pth,2.40
2022-11-02T20:32:00,pth,1.20
2022-11-02T20:34:00,pth,2.40
2022-11-02T20:35:00,pth,1.20
2022-11-02T20:37:00,pth,3.60
2022-11-02T20:39:00,pth,3.60
2022-11-02T20:41:00,pth,3.60
2022-11-02T20:43:00,pth,2.40
2022-11-02T20:45:00,pth,3.60
2022-11-02T20:46:00,pth,1.20
2022-11-02T20:48:00,pth,3.60
2022-11-02T20:49:00,pth,1.20
2022-11-02T20:51:00,pth,2.40
2022-11-02T20:53:00,pth,2.40
2022-11-02T20:54:00,pth,1.20
2022-11-02T20:56:00,pth,2.40
2022-11-02T20:57:00,pth,2.40
2022-11-02T20:59:00,pth,2.40
2022-11-02T21:01:00,pth,2.40
2022-11-02T21:03:00,pth,13.20
2022-11-02T21:04:00,pth,6.00
2022-11-02T21:06:00,pth,14.40
2022-11-02T21:08:00,pth,14.40
2022-11-02T21:10:00,pth,13.20
2022-11-02T21:11:00,pth,7.20
2022-11-02T21:13:00,pth,14.40
2022-11-02T21:15:00,pth,13.20
2022-11-02T21:17:00,pth,14.40
2022-11-02T21:19:00,pth,14.40
2022-11-02T21:21:00,pth,13.20
2022-11-02T21:22:00,pth,7.20
2022-11-02T21:24:00,pth,13.20
2022-11-02T21:26:00,pth,14.40
2022-11-02T21:28:00,pth,14.40
2022-11-02T21:29:00,pth,8.40
2022-11-02T21:31:00,pth,15.60
2022-11-02T21:33:00,pth,14.40
2022-11-02T21:34:00,pth,6.00
2022-11-02T21:36:00,pth,14.40
2022-11-02T21:37:00,pth,1.20
2022-11-02T21:39:00,pth,10.80
2022-11-02T21:41:00,pth,13.20
2022-11-02T21:43:00,pth,4.80
2022-11-02T21:45:00,pth,14.40
2022-11-02T21:47:00,pth,9.60
2022-11-02T21:49:00,pth,8.40
2022-11-02T21:51:00,pth,14.40
2022-11-02T21:53:00,pth,4.80
2022-11-02T21:55:00,pth,12.00
2022-11-02T21:57:00,pth,9.60
2022-11-02T21:58:00,pth,1.20
2022-11-02T22:00:00,pth,13.20
2022-11-02T22:02:00,pth,3.60
2022-11-02T22:04:00,pth,1.20
2022-11-02T22:06:00,pth,2.40
2022-11-02T22:07:00,pth,1.20
2022-11-02T22:09:00,pth,2.40
2022-11-02T22:11:00,pth,2.40
2022-11-02T22:13:00,pth,3.60
2022-11-02T22:14:00,pth,1.20
2022-11-02T22:16:00,pth,2.40
2022-11-02T22:17:00,pth,1.20
2022-11-02T22:19:00,pth,2.40
2022-11-02T22:20:00,pth,1.20
2022-11-02T22:22:00,pth,3.60
2022-11-02T22:24:00,pth,2.40
2022-11-02T22:26:00,pth,3.60
2022-11-02T22:28:00,pth,2.40
2022-11-02T22:30:00,pth,2.40
2022-11-02T22:32:00,pth,3.60
2022-11-02T22:34:00,pth,2.40
2022-11-02T22:35:00,pth,1.20
2022-11-02T22:37:00,pth,2.40
2022-11-02T22:39:00,pth,2.40
2022-11-02T22:41:00,pth,2.40
2022-11-02T22:42:00,pth,1.20
2022-11-02T22:44:00,pth,2.40
2022-11-02T22:46:00,pth,2.40
2022-11-02T22:48:00,pth,2.40
2022-11-02T22:50:00,pth,1.20
2022-11-02T22:51:00,pth,1.20
2022-11-02T22:53:00,pth,2.40
2022-11-02T22:54:00,pth,1.20
2022-11-02T22:56:00,pth,2.40
2022-11-02T22:58:00,pth,2.40
2022-11-02T23:00:00,pth,2.40
2022-11-02T23:02:00,pth,2.40
2022-11-02T23:03:00,pth,1.20
2022-11-02T23:05:00,pth,2.40
2022-11-02T23:07:00,pth,1.20
2022-11-02T23:08:00,pth,1.20
2022-11-02T23:10:00,pth,2.40
2022-11-02T23:12:00,pth,1.20
2022-11-02T23:14:00,pth,2.40
2022-11-02T23:16:00,pth,2.40
